Location: Newark
(45.5000°N, 11.4167°E)
Time: 20:26:22
(UTC+00:00)

deb Explorer IX - Visible Passes

Search period start: 19 August 2019 00:00
Search period end: 29 August 2019 00:00
Orbit: 539 x 1111 km, 38.8° (Epoch: 18 August)

Date Brightness Start Highest point End Pass type
(mag) Time Alt. Az. Time Alt. Az. Time Alt. Az.
19 Aug ? 19:23:51 10° WSW 19:28:03 16° SW 19:32:07 10° S visible
20 Aug ? 19:01:43 10° WSW 19:05:54 16° SW 19:10:00 10° S visible
21 Aug ? 18:39:36 10° WSW 18:43:46 16° SW 18:47:51 10° S visible
